Showing default

EUTE 5W B, 44624

Orbit data source: Space-Track

EUTE 5W B, 44624 is a payload satellite owned by EutelsatSA (FR) in GEO that was launched on Wed, 09 Oct 2019 UTC via a PROTON-M/BRIZ-M launch vehicle from the Tyuratam Missile And Space Complex (TTMTR). Payload-class satellites include a variety of spacecraft equipped with specific instruments for various scientific and technological missions. These include communications satellites like Starlink; space stations such as the ISS; scientific satellites like the Hubble; Earth observation satellites from companies like Planet Labs, Umbra, and HawkEye 360; GPS; miniature CubeSats for education and research; and military/defense satellites.

Not visible in the next 10 days
Identifier
44624, 2019-067A
Orbit
GEO
Last TLE update
6 hours ago
Origin
Manufacturer
NGIS SSG
Mission
Partially operational Commercial Communications
Bus & Motor
GEOSTAR-2, IHI BT-4?
Mass
2,864 kg wet, ~2,200 kg dry
Launch date (UTC)
2019-10-09 (6 years ago)
Launch vehicle
PROTON-M/BRIZ-M
Launch site
Tyuratam Missile And Space Complex (TTMTR)
Object type
Payload
Rocket body
Debris
Shape & HBR
Box + 2 Pan, Unknown HBR
Radar Cross Section
28.221 m², Large (>1 m²)

Expand to show TLE details & history

TLE from 6 hours ago
0 EUTE 5W B
1 44624U 19067A   25187.84874896 -.00000025  00000-0  00000+0 0  9997
2 44624   0.0754 326.8250 0003396 137.7536 121.0357  1.00271390 20966
Epoch: 2025-07-06T20:22Z
TLE epoch observation values (Epoch: 2025-07-06T20:22:11.91Z)
Latitude
-0.08595°
Longitude
-4.96718°
Altitude
35,793.641 km
Speed
3.074 km/s
True Right ascension
15h 02m 35s
True Declination
0° 05' 09"
Sunlit
Object was in daylight at epoch
Visualization orbit readout
Latitude
-0.03397°
Longitude
83.8628°
Altitude
35,798.658 km
Speed
3.074 km/s
Apparent Right ascension
21h 23m 29s
Apparent Declination
-5° 24' 11"
Sunlit
Object is in daylight
Visualization observer readout
Local Sidereal Time
14:17:31
Azimuth
83.478° E
Elevation
-16.092°
Doppler factor
1
Orbital elements
Apogee altitude
35,802.096 km
Perigee altitude
35,773.457 km
Semi-major axis
42,165.913 km
Eccentricity
0.00034
Inclination
0.0754°
RAAN
326.825°
Arg. of periapsis
137.7536°
True anomaly
Unknown
Mean anomaly
121.0357°
Eccentric anomaly
Unknown
Mean motion
0.25067 °/min
Orbital period
1,436.16 mins
BSTAR
0
Loading historical data...
44624 neighbors
Loading maneuver chart data...
Loading SW <> Apogee altitude chart data...
Loading historical data...
Loading historical data...
Loading historical data...
Loading historical data...
Loading historical data...
Loading historical data...
Loading historical data...
Other satellites on launch #67 in the year 2019 (2019-10-09 UTC)

EUTE 5W B Visibility

Observer location: undefined°, undefined°

EUTE 5W B is likely not visible in the next few days
Span
Click to sort rows by Start time (UTC) header in descending order
Start Az.
Max El. time (UTC)
Max El. Az.
Max El.
End time (UTC)
End Az.
|